Flag for India Past Weather in New Okhla Industrial Development Authority, Uttar Pradesh, India — Yesterday and Last 2 Weeks

Now
45 °F

Fog.


Feels Like: 43 °F
Forecast: 45 / 67 °F
Wind: 3 mph from West

Location: New Delhi Palam Airport

Current Time: Jan 20, 2017 at 3:23:35 am

Latest Report: Jan 20, 2017 at 2:30 am


Visibility: 0 mi

Pressure: 30.18 "Hg

Humidity: 93%

Dew Point: 43 °F

Location of New Okhla Industrial Development AuthorityLocation

Past Weather in New Okhla Industrial Development Authority — Graph

°F

New Okhla Industrial Development Authority Temperature Yesterday

Maximum temperature yesterday: 66 °F (at 1:30 pm)
Minimum temperature yesterday: 43 °F (at 7:00 am)
Average temperature yesterday: 54 °F

High & Low Weather Summary for the Past Weeks

 TemperatureHumidityPressure
High77 °F (Jan 5, 2:00 pm)100% (Jan 5, 1:30 am)30.27 "Hg (Jan 5, 1:30 am)
Low39 °F (Jan 11, 8:00 am)20% (Jan 15, 4:30 pm)29.83 "Hg (Jan 6, 2:30 pm)
Average56 °F73%30.02 "Hg
* Reported Jan 5 1:30 am — Jan 20 2:00 am, New Okhla Industrial Development Authority, Weather by CustomWeather, © 2017

Note: Actual official high and low records may vary slightly from our data, if they occured in-between our weather recording intervals... More about our weather records

Advertising

New Okhla Industrial Development Authority Weather History for the Previous 24 Hours

Scroll right to see more
 ConditionsComfort  
Time TempWeatherWind HumidityBarometerVisibility
2:00 am
Fri, Jan 20
46 °FFog.3 mph87%30.18 "Hg1 mi
1:30 am46 °FFog.5 mph93%30.21 "Hg1 mi
1:00 am48 °FFog.3 mph87%30.21 "Hg1 mi
12:30 am50 °FFog.3 mph88%30.21 "Hg1 mi
12:00 am52 °FFog.5 mph88%30.21 "Hg1 mi
11:30 pm
Thu, Jan 19
54 °FFog.5 mph82%30.21 "Hg1 mi
11:00 pm54 °FFog.8 mph88%30.21 "Hg1 mi
10:30 pm54 °FFog.7 mph77%30.21 "Hg1 mi
10:00 pm54 °FFog.6 mph77%30.21 "Hg1 mi
9:30 pm54 °FClear.7 mph77%30.21 "Hg1 mi
9:00 pm55 °FClear.8 mph72%30.21 "Hg1 mi
8:30 pm55 °FPassing clouds.5 mph72%30.21 "Hg1 mi
8:00 pm55 °FPassing clouds.5 mph72%30.21 "Hg1 mi
7:30 pm57 °FPassing clouds.5 mph67%30.18 "Hg1 mi
7:00 pm59 °FPassing clouds.7 mph63%30.18 "Hg1 mi
6:30 pm59 °FPassing clouds.7 mph63%30.18 "Hg1 mi
6:00 pm61 °FPassing clouds.7 mph55%30.15 "Hg1 mi
5:30 pm64 °FPassing clouds.8 mph49%30.15 "Hg1 mi
5:00 pm66 °FClear.10 mph46%30.15 "Hg1 mi
4:30 pm66 °FClear.10 mph46%30.15 "Hg1 mi
4:00 pm66 °FClear.9 mph46%30.15 "Hg1 mi
3:30 pm66 °FClear.12 mph43%30.15 "Hg1 mi
3:00 pm66 °FClear.12 mph43%30.12 "Hg1 mi
2:30 pm66 °FClear.10 mph40%30.18 "Hg1 mi
2:00 pm66 °FClear.10 mph40%30.18 "Hg1 mi
1:30 pm66 °FClear.10 mph40%30.21 "Hg1 mi
1:00 pm64 °FClear.10 mph43%30.24 "Hg1 mi
12:30 pm63 °FClear.8 mph52%30.24 "Hg1 mi
12:00 pm63 °FClear.9 mph52%30.24 "Hg1 mi
11:30 am55 °FClear.8 mph72%30.27 "Hg1 mi
10:30 am54 °FFog.8 mph82%30.27 "Hg1 mi
10:00 am48 °FFog.8 mph94%30.24 "Hg1 mi
9:30 am46 °FFog.7 mph100%30.24 "Hg0 mi
9:00 am45 °FFog.7 mph100%30.24 "Hg0 mi
8:30 am45 °FFog.7 mph100%30.24 "Hg0 mi
8:00 am43 °FFog.5 mph100%30.21 "Hg0 mi
7:30 am43 °FFog.7 mph100%30.21 "Hg0 mi
7:00 am43 °FFog.7 mph100%30.21 "Hg0 mi
6:30 am45 °FFog.6 mph100%30.18 "Hg0 mi
6:00 am45 °FFog.7 mph100%30.18 "Hg0 mi
5:30 am45 °FFog.7 mph100%30.18 "Hg0 mi
5:00 am45 °FFog.5 mph93%30.15 "Hg0 mi
4:30 am45 °FFog.5 mph93%30.15 "Hg0 mi
4:00 am45 °FFog.3 mph93%30.15 "Hg0 mi
3:30 am45 °FFog.3 mph93%30.15 "Hg0 mi
3:00 am46 °FFog.5 mph93%30.18 "Hg0 mi
Weather by CustomWeather, © 2017

See weather overviewHow to use our weather pages